Tracking 20383 objects as of 24-Feb-2020
HD Live streaming from Space Station
objects crossing your sky now
Track the group of recently launched Starlink satellites

SL-8 DEB

Track SL-8 DEB now!
10-day predictions


NORAD ID: 5052
Int'l Code: 1971-020C
Perigee: 984.8 km
Apogee: 1,004.4 km
Inclination: 65.8 °
Period: 104.9 minutes
Semi major axis: 7365 km
RCS: 0.4335 m2 (medium)
Launch date: March 18, 1971
Source: Commonwealth of Independent States (former USSR) (CIS)
Launch site: PLESETSK MISSILE AND SPACE COMPLEX (PKMTR)

Note: This is SATELLITE DEBRIS
aabbcc
Your satellite tracking list
Your tracking list is empty




NASA's NSSDC Master Catalog

Two Line Element Set (TLE):
1  5052U 71020C   20054.52791471 -.00000070  00000-0  11498-4 0  9994
2  5052  65.8205  55.5265 0013283 249.4723 244.9788 13.73371792452833
Source of the keplerian elements: AFSPC